Location: Unspecified
(41.1637°N, 24.2901°E)
Time: 15:40:51
(UTC+01:00)

ISS - Pass Details

Date: 24 November 2020
Orbit: 418 x 421 km, 51.6° (Epoch: 29 November)

Event Time Altitude Azimuth Distance (km) Brightness Sun altitude
Rises 18:09:28 0° 280° (W) 2,359 1.3 -24.5°
Reaches altitude 10° 18:12:04 10° 301° (WNW) 1,497 -0.3 -25.0°
Enters shadow 18:13:26 16° 324° (NW) 1,200 -1.2 -25.2°
